Time,TemperatureF,DewpointF,PressureIn,WindDirection,WindDirectionDegrees,WindSpeedMPH,WindSpeedGustMPH,Humidity,HourlyPrecipIn,Conditions,Clouds,dailyrainin,SolarRadiationWatts/m^2,SoftwareType,DateUTC
2017-03-27 00:04:00,55.6,55.4,29.97,West,268,0.0,0.0,99,0.00,,,0.00,0.00,Weather logger V3.1.,2017-03-27 04:04:00,
2017-03-27 00:09:00,55.4,55.2,29.96,West,260,0.0,0.0,99,0.00,,,0.00,0.00,Weather logger V3.1.,2017-03-27 04:09:00,
2017-03-27 00:14:00,55.4,55.2,29.97,West,281,1.6,2.5,99,0.00,,,0.00,0.00,Weather logger V3.1.,2017-03-27 04:14:00,
2017-03-27 00:19:00,55.4,55.2,29.96,West,270,2.9,4.9,99,0.00,,,0.00,0.00,Weather logger V3.1.,2017-03-27 04:19:00,
2017-03-27 00:24:00,55.4,55.2,29.97,West,275,2.9,4.9,99,0.00,,,0.00,0.00,Weather logger V3.1.,2017-03-27 04:24:00,
2017-03-27 00:29:00,55.2,54.5,29.97,West,267,1.8,2.5,97,0.00,,,0.00,0.00,Weather logger V3.1.,2017-03-27 04:29:00,
2017-03-27 00:34:00,55.2,54.5,29.97,West,270,2.2,2.5,97,0.00,,,0.00,0.00,Weather logger V3.1.,2017-03-27 04:34:00,
2017-03-27 00:40:00,55.2,54.5,29.96,WNW,294,0.9,2.5,97,0.00,,,0.00,0.00,Weather logger V3.1.,2017-03-27 04:40:00,
2017-03-27 00:45:00,55.2,54.5,29.97,West,278,1.3,2.5,97,0.00,,,0.00,0.00,Weather logger V3.1.,2017-03-27 04:45:00,
2017-03-27 00:50:00,55.2,54.5,29.96,WSW,258,0.0,0.0,97,0.00,,,0.00,0.00,Weather logger V3.1.,2017-03-27 04:50:00,
2017-03-27 00:55:00,55.0,54.3,29.96,WSW,257,0.0,0.0,97,0.00,,,0.00,0.00,Weather logger V3.1.,2017-03-27 04:55:00,
2017-03-27 01:01:00,54.9,54.1,29.96,WSW,258,0.0,0.0,97,0.00,,,0.00,0.00,Weather logger V3.1.,2017-03-27 05:01:00,
2017-03-27 01:06:00,54.9,54.1,29.96,WSW,244,0.2,2.5,97,0.00,,,0.00,0.00,Weather logger V3.1.,2017-03-27 05:06:00,
2017-03-27 01:11:00,54.7,54.0,29.97,West,269,0.2,2.5,97,0.00,,,0.00,0.00,Weather logger V3.1.,2017-03-27 05:11:00,
2017-03-27 01:16:00,54.7,54.0,29.96,West,273,0.2,2.5,97,0.00,,,0.00,0.00,Weather logger V3.1.,2017-03-27 05:16:00,
2017-03-27 01:21:00,54.5,53.8,29.97,West,271,1.8,2.5,97,0.00,,,0.00,0.00,Weather logger V3.1.,2017-03-27 05:21:00,
2017-03-27 01:26:00,54.3,53.6,29.96,West,274,1.6,2.5,97,0.00,,,0.00,0.00,Weather logger V3.1.,2017-03-27 05:26:00,
2017-03-27 01:31:00,54.3,53.6,29.96,West,263,0.0,0.0,97,0.00,,,0.00,0.00,Weather logger V3.1.,2017-03-27 05:31:00,
2017-03-27 01:36:00,54.1,53.4,29.96,West,266,0.0,0.0,97,0.00,,,0.00,0.00,Weather logger V3.1.,2017-03-27 05:36:00,
2017-03-27 01:41:00,54.1,53.4,29.96,West,261,0.0,0.0,97,0.00,,,0.00,0.00,Weather logger V3.1.,2017-03-27 05:41:00,
2017-03-27 01:46:00,54.0,53.2,29.96,West,265,0.0,0.0,97,0.00,,,0.00,0.00,Weather logger V3.1.,2017-03-27 05:46:00,
2017-03-27 01:52:00,53.8,53.2,29.96,WSW,250,0.0,0.0,98,0.00,,,0.00,0.00,Weather logger V3.1.,2017-03-27 05:52:00,
2017-03-27 01:57:00,53.6,53.1,29.95,South,188,0.0,0.0,98,0.00,,,0.00,0.00,Weather logger V3.1.,2017-03-27 05:57:00,
2017-03-27 02:02:00,53.6,52.9,29.96,South,174,0.0,0.0,97,0.00,,,0.00,0.00,Weather logger V3.1.,2017-03-27 06:02:00,
2017-03-27 02:07:00,53.2,52.5,29.96,SSW,192,0.0,0.0,97,0.00,,,0.00,0.00,Weather logger V3.1.,2017-03-27 06:07:00,
2017-03-27 02:12:00,53.2,52.5,29.96,SW,236,0.0,0.0,97,0.00,,,0.00,0.00,Weather logger V3.1.,2017-03-27 06:12:00,
2017-03-27 02:17:00,52.9,51.8,29.96,SW,235,0.0,0.0,96,0.00,,,0.00,0.00,Weather logger V3.1.,2017-03-27 06:17:00,
2017-03-27 02:22:00,52.7,52.0,29.96,SW,234,0.0,0.0,97,0.00,,,0.00,0.00,Weather logger V3.1.,2017-03-27 06:22:00,
2017-03-27 02:27:00,52.5,51.8,29.95,SE,144,0.2,2.5,97,0.00,,,0.00,0.00,Weather logger V3.1.,2017-03-27 06:27:00,
2017-03-27 02:32:00,52.3,51.6,29.95,SW,232,0.0,0.0,97,0.00,,,0.00,0.00,Weather logger V3.1.,2017-03-27 06:32:00,
2017-03-27 02:37:00,52.3,51.8,29.95,SSW,192,0.0,0.0,98,0.00,,,0.00,0.00,Weather logger V3.1.,2017-03-27 06:37:00,
2017-03-27 02:42:00,52.2,51.6,29.95,East,85,0.0,0.0,98,0.00,,,0.00,0.00,Weather logger V3.1.,2017-03-27 06:42:00,
2017-03-27 02:47:00,52.2,51.6,29.96,West,261,0.0,0.0,98,0.00,,,0.00,0.00,Weather logger V3.1.,2017-03-27 06:47:00,
2017-03-27 02:52:00,52.2,51.6,29.96,South,184,0.0,0.0,98,0.00,,,0.00,0.00,Weather logger V3.1.,2017-03-27 06:52:00,
2017-03-27 02:57:00,52.2,51.6,29.95,SW,236,0.0,0.0,98,0.00,,,0.00,0.00,Weather logger V3.1.,2017-03-27 06:57:00,
2017-03-27 03:02:00,52.2,51.6,29.96,WSW,258,0.0,0.0,98,0.00,,,0.00,0.00,Weather logger V3.1.,2017-03-27 07:02:00,
2017-03-27 03:08:00,52.2,51.6,29.96,WSW,252,0.0,0.0,98,0.00,,,0.00,0.00,Weather logger V3.1.,2017-03-27 07:08:00,
2017-03-27 03:13:00,52.2,51.6,29.96,WSW,255,0.0,0.0,98,0.00,,,0.00,0.00,Weather logger V3.1.,2017-03-27 07:13:00,
2017-03-27 03:18:00,52.2,51.6,29.96,WSW,253,0.0,0.0,98,0.00,,,0.00,0.00,Weather logger V3.1.,2017-03-27 07:18:00,
2017-03-27 03:23:00,52.2,51.6,29.96,WSW,257,0.0,0.0,98,0.00,,,0.00,0.00,Weather logger V3.1.,2017-03-27 07:23:00,
2017-03-27 03:28:00,52.0,51.8,29.96,West,261,0.0,0.0,99,0.00,,,0.00,0.00,Weather logger V3.1.,2017-03-27 07:28:00,
2017-03-27 03:33:00,51.8,51.6,29.96,West,268,0.0,0.0,99,0.00,,,0.00,0.00,Weather logger V3.1.,2017-03-27 07:33:00,
2017-03-27 03:38:00,51.8,51.6,29.96,WSW,251,0.0,0.0,99,0.00,,,0.00,0.00,Weather logger V3.1.,2017-03-27 07:38:00,
2017-03-27 03:43:00,51.6,51.4,29.96,West,270,0.0,0.0,99,0.00,,,0.00,0.00,Weather logger V3.1.,2017-03-27 07:43:00,
2017-03-27 03:48:00,51.4,51.3,29.96,West,270,0.0,0.0,99,0.00,,,0.00,0.00,Weather logger V3.1.,2017-03-27 07:48:00,
2017-03-27 03:53:00,51.3,51.1,29.96,WSW,255,0.0,0.0,99,0.00,,,0.00,0.00,Weather logger V3.1.,2017-03-27 07:53:00,
2017-03-27 03:58:00,51.1,50.9,29.96,WSW,252,0.0,0.0,99,0.00,,,0.00,0.00,Weather logger V3.1.,2017-03-27 07:58:00,
2017-03-27 04:03:00,51.1,50.9,29.96,West,266,0.0,0.0,99,0.00,,,0.00,0.00,Weather logger V3.1.,2017-03-27 08:03:00,
2017-03-27 04:08:00,50.9,50.7,29.96,WSW,256,0.0,0.0,99,0.00,,,0.00,0.00,Weather logger V3.1.,2017-03-27 08:08:00,
2017-03-27 04:13:00,50.9,50.7,29.96,West,261,0.0,0.0,99,0.00,,,0.00,0.00,Weather logger V3.1.,2017-03-27 08:13:00,
2017-03-27 04:18:00,50.7,50.5,29.97,West,262,0.2,2.5,99,0.00,,,0.00,0.00,Weather logger V3.1.,2017-03-27 08:18:00,
2017-03-27 04:24:00,50.7,50.5,29.96,West,259,0.0,0.0,99,0.00,,,0.00,0.00,Weather logger V3.1.,2017-03-27 08:24:00,
2017-03-27 04:29:00,50.5,50.4,29.96,West,259,0.0,0.0,99,0.00,,,0.00,0.00,Weather logger V3.1.,2017-03-27 08:29:00,
2017-03-27 04:34:00,50.5,50.4,29.96,South,176,0.0,0.0,99,0.00,,,0.00,0.00,Weather logger V3.1.,2017-03-27 08:34:00,
2017-03-27 04:39:00,50.5,50.4,29.96,WSW,249,0.0,0.0,99,0.00,,,0.00,0.00,Weather logger V3.1.,2017-03-27 08:39:00,
2017-03-27 04:44:00,50.4,50.2,29.96,WSW,249,0.0,0.0,99,0.00,,,0.00,0.00,Weather logger V3.1.,2017-03-27 08:44:00,
2017-03-27 04:49:00,50.4,50.2,29.96,SW,236,0.0,0.0,99,0.00,,,0.00,0.00,Weather logger V3.1.,2017-03-27 08:49:00,
2017-03-27 04:54:00,50.2,50.0,29.97,WSW,248,0.0,0.0,99,0.00,,,0.00,0.00,Weather logger V3.1.,2017-03-27 08:54:00,
2017-03-27 04:59:00,50.2,50.0,29.97,WSW,254,0.0,0.0,99,0.00,,,0.00,0.00,Weather logger V3.1.,2017-03-27 08:59:00,
2017-03-27 05:04:00,50.0,49.8,29.96,SW,218,0.0,0.0,99,0.00,,,0.00,0.00,Weather logger V3.1.,2017-03-27 09:04:00,
2017-03-27 05:09:00,50.0,49.8,29.96,SSW,203,0.0,0.0,99,0.00,,,0.00,0.00,Weather logger V3.1.,2017-03-27 09:09:00,
2017-03-27 05:14:00,50.0,49.8,29.96,SSE,151,0.0,0.0,99,0.00,,,0.00,0.00,Weather logger V3.1.,2017-03-27 09:14:00,
2017-03-27 05:19:00,50.0,49.8,29.96,WSW,246,0.0,0.0,99,0.00,,,0.00,0.00,Weather logger V3.1.,2017-03-27 09:19:00,
2017-03-27 05:24:00,50.0,49.8,29.97,WSW,252,0.0,0.0,99,0.00,,,0.00,0.00,Weather logger V3.1.,2017-03-27 09:24:00,
2017-03-27 05:29:00,50.2,50.0,29.97,SSE,165,0.0,0.0,99,0.00,,,0.00,0.00,Weather logger V3.1.,2017-03-27 09:29:00,
2017-03-27 05:34:00,50.2,50.0,29.97,WSW,252,0.0,0.0,99,0.00,,,0.00,0.00,Weather logger V3.1.,2017-03-27 09:34:00,
2017-03-27 05:40:00,50.2,50.0,29.97,WNW,303,0.0,0.0,99,0.00,,,0.00,0.00,Weather logger V3.1.,2017-03-27 09:40:00,
2017-03-27 05:45:00,50.2,50.0,29.97,West,260,0.0,0.0,99,0.00,,,0.00,0.00,Weather logger V3.1.,2017-03-27 09:45:00,
2017-03-27 05:50:00,50.4,50.2,29.98,SSW,213,0.0,0.0,99,0.00,,,0.00,0.00,Weather logger V3.1.,2017-03-27 09:50:00,
2017-03-27 05:55:00,50.5,50.4,29.98,West,265,0.0,0.0,99,0.00,,,0.00,0.00,Weather logger V3.1.,2017-03-27 09:55:00,
2017-03-27 06:00:00,50.7,50.5,29.98,West,259,0.0,0.0,99,0.00,,,0.00,0.00,Weather logger V3.1.,2017-03-27 10:00:00,
2017-03-27 06:05:00,50.7,50.5,29.98,WSW,246,0.0,0.0,99,0.00,,,0.00,0.00,Weather logger V3.1.,2017-03-27 10:05:00,
2017-03-27 06:10:00,50.9,50.7,29.98,West,263,0.0,0.0,99,0.00,,,0.00,0.00,Weather logger V3.1.,2017-03-27 10:10:00,
2017-03-27 06:15:00,50.9,50.7,29.98,WSW,251,0.0,0.0,99,0.00,,,0.00,0.00,Weather logger V3.1.,2017-03-27 10:15:00,
2017-03-27 06:20:00,51.1,50.9,29.98,WSW,244,0.0,0.0,99,0.00,,,0.00,0.00,Weather logger V3.1.,2017-03-27 10:20:00,
2017-03-27 06:25:00,51.1,50.9,29.98,WSW,242,0.0,0.0,99,0.00,,,0.00,0.00,Weather logger V3.1.,2017-03-27 10:25:00,
2017-03-27 06:30:00,51.1,50.9,29.98,WSW,242,0.0,0.0,99,0.00,,,0.00,0.00,Weather logger V3.1.,2017-03-27 10:30:00,
2017-03-27 06:35:00,51.1,50.9,29.98,SW,227,0.0,0.0,99,0.00,,,0.00,0.00,Weather logger V3.1.,2017-03-27 10:35:00,
2017-03-27 06:40:00,51.1,50.9,29.98,SW,223,0.0,0.0,99,0.00,,,0.00,0.00,Weather logger V3.1.,2017-03-27 10:40:00,
2017-03-27 06:45:00,51.1,50.9,29.98,SW,223,0.0,0.0,99,0.00,,,0.00,0.00,Weather logger V3.1.,2017-03-27 10:45:00,
2017-03-27 06:50:00,51.1,50.9,29.98,SW,225,0.0,0.0,99,0.00,,,0.00,0.00,Weather logger V3.1.,2017-03-27 10:50:00,
2017-03-27 06:56:00,51.1,50.9,29.98,South,183,0.0,0.0,99,0.00,,,0.00,0.00,Weather logger V3.1.,2017-03-27 10:56:00,
2017-03-27 07:01:00,51.1,50.9,29.98,SW,217,0.0,0.0,99,0.00,,,0.00,0.00,Weather logger V3.1.,2017-03-27 11:01:00,
2017-03-27 07:06:00,51.1,50.9,29.98,SSE,158,0.0,0.0,99,0.00,,,0.00,0.00,Weather logger V3.1.,2017-03-27 11:06:00,
2017-03-27 07:11:00,51.1,50.9,29.99,South,181,0.0,0.0,99,0.00,,,0.00,0.00,Weather logger V3.1.,2017-03-27 11:11:00,
2017-03-27 07:16:00,51.1,50.9,29.98,SSE,168,0.0,0.0,99,0.00,,,0.00,0.00,Weather logger V3.1.,2017-03-27 11:16:00,
2017-03-27 07:21:00,51.3,51.1,29.98,SE,145,0.0,0.0,99,0.00,,,0.00,0.00,Weather logger V3.1.,2017-03-27 11:21:00,
2017-03-27 07:26:00,51.3,51.1,29.98,SSE,162,0.0,0.0,99,0.00,,,0.00,0.00,Weather logger V3.1.,2017-03-27 11:26:00,
2017-03-27 07:31:00,51.3,51.1,29.98,SSE,161,0.7,2.5,99,0.00,,,0.00,0.00,Weather logger V3.1.,2017-03-27 11:31:00,
2017-03-27 07:36:00,51.4,51.3,29.98,SE,131,1.3,2.5,99,0.00,,,0.00,1.41,Weather logger V3.1.,2017-03-27 11:36:00,
2017-03-27 07:41:00,51.4,51.3,29.99,SSE,165,0.0,0.0,99,0.00,,,0.00,4.75,Weather logger V3.1.,2017-03-27 11:41:00,
2017-03-27 07:46:00,51.4,51.3,29.99,South,175,2.5,4.9,99,0.00,,,0.00,11.01,Weather logger V3.1.,2017-03-27 11:46:00,
2017-03-27 07:51:00,51.4,50.9,29.99,WSW,258,0.0,0.0,98,0.00,,,0.00,15.83,Weather logger V3.1.,2017-03-27 11:51:00,
2017-03-27 07:56:00,51.6,51.1,29.99,South,186,0.0,0.0,98,0.00,,,0.00,21.43,Weather logger V3.1.,2017-03-27 11:56:00,
2017-03-27 08:01:00,51.6,51.1,30.00,WSW,254,0.0,0.0,98,0.00,,,0.00,30.43,Weather logger V3.1.,2017-03-27 12:01:00,
2017-03-27 08:06:00,51.6,51.1,30.01,WSW,251,0.0,0.0,98,0.00,,,0.00,31.76,Weather logger V3.1.,2017-03-27 12:06:00,
2017-03-27 08:12:00,51.6,51.1,30.01,WSW,258,0.0,0.0,98,0.00,,,0.00,37.29,Weather logger V3.1.,2017-03-27 12:12:00,
2017-03-27 08:17:00,51.8,51.3,30.01,WSW,250,0.0,0.0,98,0.00,,,0.00,47.54,Weather logger V3.1.,2017-03-27 12:17:00,
2017-03-27 08:22:00,51.8,51.3,30.02,West,263,0.0,0.0,98,0.00,,,0.00,55.69,Weather logger V3.1.,2017-03-27 12:22:00,
2017-03-27 08:27:00,52.0,51.4,30.01,West,274,0.0,0.0,98,0.00,,,0.00,52.97,Weather logger V3.1.,2017-03-27 12:27:00,